Change the Weather History Date:

Friday, October 7, 2011

  Actual Average Record
Temperature  
Mean Temperature 54 °F -  
Max Temperature 61 °F 60 °F 73 °F (2012)
Min Temperature 45 °F 44 °F 34 °F (1973)
Degree Days  
Heating Degree Days 11    
Growing Degree Days 4 (Base 50)    
Moisture  
Dew Point 49 °F    
Average Humidity 84    
Maximum Humidity 94    
Minimum Humidity 67    
Precipitation  
Precipitation 0.00 in - - ()
Sea Level Pressure  
Sea Level Pressure 30.15 in    
Wind  
Wind Speed 2 mph (West)    
Max Wind Speed 7 mph    
Max Gust Speed -    
Visibility 9 miles    
Events Rain    
Averages and records for this station are not official NWS values.
T = Trace of Precipitation, MM = Missing Value Source: NWS Daily Summary

Daily Weather History Graph

Daily Weather History Graph

Search for Another Location

Airport or City:

Trip Planner

Search our weather history database for the weather conditions in past years. The results will help you decide how hot, cold, wet, or windy it might be!

Date:

Astronomy

Oct. 07, 2011 Rise Set
Actual Time 7:21 AM PDT 6:41 PM PDT
Civil Twilight 6:50 AM PDT 7:12 PM PDT
Nautical Twilight 6:14 AM PDT 7:48 PM PDT
Astronomical Twilight 5:38 AM PDT 8:24 PM PDT
Moon 4:40 PM PDT (10/7) 2:58 AM PDT (10/7)
Length of Visible Light 12h 21m
Length of Day
11h 19m
Waxing Gibbous, 84% of the Moon is Illuminated
Oct 7
Waxing Gibbous
Oct 11
Full
Oct 19
Last Quarter
Oct 26
New
Nov 2
First Quarter

Hourly Weather History & Observations

Time (PDT) Temp. Windchill Dew Point Humidity Pressure Visibility Wind Dir Wind Speed Gust Speed Precip Events Conditions
12:08 AM 51.8 °F - 46.4 °F 82% 30.06 in 10.0 mi West 3.5 mph - N/A   Overcast
12:53 AM 52.0 °F - 46.9 °F 83% 30.07 in 10.0 mi Calm Calm - N/A   Overcast
1:53 AM 51.1 °F - 48.0 °F 89% 30.08 in 10.0 mi SW 5.8 mph - 0.00 in Rain Light Rain
2:53 AM 50.0 °F - 48.0 °F 93% 30.08 in 10.0 mi Calm Calm - 0.00 in   Overcast
3:53 AM 51.1 °F - 48.0 °F 89% 30.07 in 10.0 mi Calm Calm - 0.00 in   Overcast
4:53 AM 51.1 °F - 48.0 °F 89% 30.07 in 10.0 mi SW 3.5 mph - N/A   Overcast
5:03 AM 51.8 °F - 48.2 °F 88% 30.07 in 10.0 mi SW 3.5 mph - N/A   Overcast
5:53 AM 51.1 °F - 48.9 °F 92% 30.09 in 9.0 mi Calm Calm - 0.00 in Rain Light Rain
6:53 AM 52.0 °F - 48.9 °F 89% 30.10 in 10.0 mi Calm Calm - 0.00 in   Overcast
7:24 AM 51.8 °F - 48.2 °F 88% 30.09 in 10.0 mi Calm Calm - N/A   Overcast
7:53 AM 52.0 °F - 50.0 °F 93% 30.10 in 9.0 mi Calm Calm - N/A   Overcast
8:53 AM 52.0 °F - 50.0 °F 93% 30.12 in 9.0 mi Calm Calm - N/A   Overcast
9:08 AM 53.6 °F - 50.0 °F 88% 30.12 in 3.0 mi Calm Calm - N/A   Overcast
9:53 AM 51.8 °F - 50.0 °F 94% 30.13 in 2.5 mi Calm Calm - N/A   Overcast
10:13 AM 53.6 °F - 50.0 °F 88% 30.14 in 6.0 mi Calm Calm - N/A   Overcast
10:53 AM 54.0 °F - 50.0 °F 86% 30.14 in 10.0 mi Calm Calm - N/A   Overcast
11:15 AM 53.6 °F - 50.0 °F 88% 30.15 in 10.0 mi Calm Calm - N/A   Overcast
11:27 AM 53.6 °F - 50.0 °F 88% 30.15 in 10.0 mi Calm Calm - N/A   Overcast
11:53 AM 55.0 °F - 50.0 °F 83% 30.16 in 10.0 mi Calm Calm - N/A   Overcast
12:51 PM 57.2 °F - 51.8 °F 82% 30.16 in 10.0 mi Variable 3.5 mph - N/A   Overcast
12:53 PM 57.9 °F - 51.1 °F 78% 30.16 in 10.0 mi Calm Calm - N/A   Overcast
1:23 PM 57.2 °F - 51.8 °F 82% 30.16 in 10.0 mi WNW 4.6 mph - N/A   Scattered Clouds
1:53 PM 60.1 °F - 51.1 °F 72% 30.16 in 10.0 mi Variable 6.9 mph - N/A   Scattered Clouds
2:03 PM 60.8 °F - 51.8 °F 72% 30.16 in 10.0 mi NNW 3.5 mph - N/A   Mostly Cloudy
2:53 PM 60.1 °F - 48.9 °F 67% 30.17 in 10.0 mi NNW 5.8 mph - N/A   Scattered Clouds
3:53 PM 57.9 °F - 50.0 °F 75% 30.17 in 10.0 mi North 3.5 mph - N/A   Mostly Cloudy
4:53 PM 57.0 °F - 50.0 °F 77% 30.18 in 10.0 mi Variable 3.5 mph - N/A   Clear
5:25 PM 55.4 °F - 51.8 °F 88% 30.19 in 10.0 mi NNE 3.5 mph - N/A   Mostly Cloudy
5:53 PM 55.0 °F - 50.0 °F 83% 30.19 in 10.0 mi NW 3.5 mph - N/A   Overcast
6:39 PM 55.4 °F - 48.2 °F 77% 30.20 in 10.0 mi West 3.5 mph - N/A   Overcast
6:53 PM 55.0 °F - 48.9 °F 80% 30.20 in 10.0 mi WSW 3.5 mph - N/A   Overcast
7:33 PM 53.6 °F - 48.2 °F 82% 30.21 in 10.0 mi West 3.5 mph - N/A   Mostly Cloudy
7:53 PM 54.0 °F - 48.9 °F 83% 30.21 in 10.0 mi Calm Calm - N/A   Overcast
8:53 PM 55.0 °F - 48.9 °F 80% 30.22 in 10.0 mi SW 3.5 mph - N/A   Overcast
9:35 PM 53.6 °F - 48.2 °F 82% 30.21 in 10.0 mi Calm Calm - N/A   Scattered Clouds
9:53 PM 50.0 °F - 46.9 °F 89% 30.22 in 10.0 mi Calm Calm - N/A   Clear
10:53 PM 48.0 °F - 45.0 °F 89% 30.23 in 10.0 mi SW 3.5 mph - N/A   Clear
11:53 PM 45.0 °F 43.5 °F 42.1 °F 90% 30.24 in 10.0 mi SSE 3.5 mph - N/A   Clear